sat.trackr.live / text

‹ back to catalog

STARLINK-37538

NORAD 68844 · 2026-094F

PAYLOAD ACTIVE UNKNOWN

§ Identity

Operator
Country
US
Launch date
2026-04-26
Launch site
AFWTR
Launch vehicle
Mass (kg)
RCS (m²)

Purposes: comms

External: N2YO · Heavens-Above · Gunter

§ Orbital elements

Epoch: 2026-05-25T04:00:03.998880Z

Period
92.95 min
Inclination
97.2851°
Eccentricity
0.0001484
Mean motion
15.49170392 rev/d
Perigee alt
418.1 km
Apogee alt
420.2 km
Semi-major
6,797.3 km
B*
3.6541e-5
RAAN
159.8520°
Arg perigee
88.7689°
Mean anomaly
312.4785°
Rev number
567

§ Raw data

STARLINK-375381 68844U 26094F   26145.16671295  .00001896  00000+0  36541-4 0  99922 68844  97.2851 159.8520 0001484  88.7689 312.4785 15.49170392  5676

JSON: /api/v1/satellites/68844 · /tle

For live sub-satellite position, see the globe view (requires WebGL).

§ Visibility from observer

Set your observer location to see the next 7 days of passes ≥ 10°. The values pass through the URL so the page stays shareable.

No JS? Fill the form by hand. The geolocation button needs JavaScript.